Location: Albuquerque Trailhead
(34.7934°N, 106.3736°W)
Time: 05:33:27
(UTC+00:00)

Cosmos 1633 - Pass Details

Date: 20 June 2021
Orbit: 461 x 476 km, 82.5° (Epoch: 29 July)

Event Time Altitude Azimuth Distance (km) Brightness Sun altitude
Exits shadow 08:43:21 28° 10° (N) 904 4.5 -27.5°
Drops below altitude 10° 08:45:07 10° 8° (N) 1,616 6.1 -27.3°
Sets 08:47:13 0° 8° (N) 2,497 7.3 -27.1°
